Regional Weather Roundup
Issued by NWS

Home | Current Version | Previous Version | Text Only | Print | Product List | Glossary On
Versions: 1 2 3 4 5 6 7 8 9 10 11 12 13 14 15 16 17 18 19 20 21 22 23 24 25 26 27 28 29 30 31 32 33 34 35 36 37 38 39 40 41 42 43 44 45 46 47 48 49 50
000
ASUS44 KFWD 210201
RWRTX
NORTH TEXAS HOURLY WEATHER ROUNDUP
NATIONAL WEATHER SERVICE FORT WORTH TX
900 PM CDT FRI APR 20 2018

NOTE: "FAIR" INDICATES FEW OR NO CLOUDS BELOW 12,000 FEET WITH NO
SIGNIFICANT WEATHER AND/OR OBSTRUCTIONS TO VISIBILITY.

TXZ118-119-210300-
DALLAS/FORT WORTH METROPLEX

CITY           SKY/WX    TMP DP  RH WIND       PRES   REMARKS
DFW AIRPORT    FAIR      63  43  48 SE14      30.05R
DALLAS LOVE    FAIR      64  43  46 SE15      30.06F
FTW MEACHAM    FAIR      65  42  43 SE16      30.03F
DAL-EXECUTIVE  FAIR      63  43  48 SE10      30.06S
FTW-ALLIANCE   FAIR      63  42  46 SE10G23   30.04S
FTW-NAS-JRB    FAIR      65  40  39 SE14      30.04F
FTW-SPINKS     FAIR      61  43  51 SE7       30.07S
ARLINGTON      FAIR      62  44  51 SE10      30.06R
GRAND PRAIRIE  CLEAR     63  41  45 E8        30.08S
ADDISON        CLEAR     64  41  42 SE14G20   30.07S
MESQUITE       FAIR      60  43  52 E8        30.08F
LANCASTER      FAIR      62  42  47 SE7       30.08S
$$

TXZ091>094-102>105-117-120-121-131>134-210300-
NORTH CENTRAL TEXAS

CITY           SKY/WX    TMP DP  RH WIND       PRES   REMARKS
SHRMAN/DENISON FAIR      59  42  53 E9        30.08F
GAINESVILLE    FAIR      60  41  49 SE14      30.07R
BOWIE          FAIR      61  40  46 SE9       30.03R
BRIDGEPORT     FAIR      63  39  41 SE10      30.05R
DECATUR        FAIR      61  41  47 SE8       30.03S
DENTON         FAIR      62  42  47 SE13      30.04S
MCKINNEY       FAIR      61  44  53 SE9       30.07F
BONHAM         FAIR      57  42  57 SE9       30.10S
ROCKWALL       FAIR      60  45  57 MISG      30.09F
TERRELL        FAIR      61  43  51 E9        30.09F
WAXAHACHIE     FAIR      61  45  54 SE5       30.08S
CLEBURNE       FAIR      63  41  45 SE13      30.07S
GRANBURY       FAIR      65  43  45 SE10G18   30.04S
$$

TXZ083>090-098>101-113>116-127>130-139>142-154-155-210300-
WESTERN NORTH TEXAS

CITY           SKY/WX    TMP DP  RH WIND       PRES   REMARKS
WICHITA FALLS  CLOUDY    64  38  38 SE13      30.00R
WF-KICKAPOO    CLOUDY    64  39  39 SE17G24   30.02R
VERNON         CLOUDY    67  37  33 SE20G28   29.94F
ABILENE        CLOUDY    64  46  52 SE23G39   29.95R
ABILENE-DYESS  CLOUDY    65  43  44 SE28G36   29.93R
BRECKENRIDGE   CLOUDY    67  40  37 SE20G32   29.97R
EASTLAND       CLOUDY    64  43  45 SE21      29.98S
RANGER         CLOUDY    63  43  48 SE15G23   30.00S
MINERAL WELLS  FAIR      62  41  46 SE14G22   30.00R
STEPHENVILLE   FAIR      61  43  51 SE9G18    30.05R
COMANCHE       CLOUDY    65  45  48 SE10G23   30.01R
COLEMAN        CLOUDY    64  46  50 S20G31    29.99R
BRADY          CLOUDY    59  52  77 SE12G22   30.00S
$$

TXZ143>147-156>162-174-175-210300-
CENTRAL TEXAS

CITY           SKY/WX    TMP DP  RH WIND       PRES   REMARKS
WACO           FAIR      62  44  51 SE14      30.07S
WACO-TSTC      CLEAR     61  46  59 SE5       30.08S
WACO-MCGREGOR  FAIR      61  44  53 SE12      30.07S
HILLSBORO      FAIR      60  46  59 SE9       30.07R
CORSICANA      FAIR      60  47  61 SE8       30.09F
MEXIA          FAIR      58  44  59 S7        30.09S
HEARNE         FAIR      58  46  63 CALM      30.11S
CAMERON        FAIR      59  46  61 SE6       30.09S
TEMPLE         FAIR      60  45  57 SE12      30.07S
KILLEEN        PTCLDY    61  43  51 E12       30.06F
KILLEEN-SKYLRK FAIR      60  46  59 SE10      30.07S
FORT HOOD      FAIR      60  46  59 SE12      30.03S
GATESVILLE     FAIR      61  45  55 SE7       30.07S
HAMILTON       FAIR      62  45  53 SE14      30.04S
LAMPASAS       FAIR      60  46  60 SE8       30.04S
$$

TXZ095>097-106>112-122>126-135>138-148>153-164>167-210300-
EAST TEXAS

CITY           SKY/WX    TMP DP  RH WIND       PRES   REMARKS
PARIS          FAIR      57  41  55 SE10      30.12S
SULPHUR SPRNGS FAIR      60  42  52 SE8       30.14R
MOUNT PLEASANT FAIR      56  45  65 SE5       30.15S
GILMER         FAIR      57  45  63 CALM      30.14S
MINEOLA        FAIR      59  45  58 E3        30.12S
TYLER          FAIR      60  44  55 SE7       30.11F
LONGVIEW       FAIR      55  49  80 SE6       30.13S
MARSHALL       FAIR      53  46  77 CALM      30.17R
ATHENS         FAIR      59  45  58 SE3       30.09F
PALESTINE      FAIR      60  45  57 E6        30.12S
JACKSONVILLE   FAIR      58  46  62 SE5       30.14F
HENDERSON      FAIR      56  46  69 SE6       30.15S
CENTER         FAIR      53  47  78 CALM      30.16S
NACOGDOCHES      N/A     52  48  86 E3        30.14S
LUFKIN         FAIR      55  50  83 E3        30.14S
$$

SUPPLEMENTAL OBSERVATIONS (NWS FORT WORTH AREA)

CITY           SKY/WX    TMP DP  RH WIND       PRES   REMARKS
$$

SUPPLEMENTAL OBSERVATIONS (NWS NORMAN AREA)

CITY           SKY/WX    TMP DP  RH WIND       PRES   REMARKS
GOODLETT         N/A     65  37  36 SE21      29.92R
ODELL            N/A     65  37  36 SE12      29.96R
CROWELL          N/A     66  40  39 SE21      29.94R
KNOX CITY        N/A     68  41  38 SE17G26   29.93S
SEYMOUR          N/A     65  40  39 E17       29.95F
$$

SUPPLEMENTAL OBSERVATIONS (NWS SAN ANGELO AREA)

CITY           SKY/WX    TMP DP  RH WIND       PRES   REMARKS
WEINERT          N/A     67  43  41 SE24      29.93F
HASKELL          N/A     67  41  38 SE18G28   29.92F
THROCKMORTON     N/A     66  43  43 SE18      29.97R
STAMFORD         N/A     68  44  42 SE30      29.94R
CLYDE            N/A     64  45  50 SE24      29.97R
$$

SUPPLEMENTAL OBSERVATIONS (NWS SHREVEPORT AREA)

CITY           SKY/WX    TMP DP  RH WIND       PRES   REMARKS
$$

SUPPLEMENTAL OBSERVATIONS ARE A COLLECTION OF AUTOMATED INSTRUMENTS
THAT ARE MAINTAINED BY A VARIETY OF FEDERAL AND STATE AGENCIES.
CERTAIN ELEMENTS...SUCH AS HUMIDITY VALUES AND SUSTAINED WIND
SPEEDS...MAY BE APPROXIMATED.





USA.gov is the U.S. government's official web portal to all federal, state and local government web resources and services.